Location: Unspecified
(0.0000°N, 0.0000°E)
Time: 19:22:51
(UTC+00:00)

RS-15 - Visible Passes

Search period start: 19 August 2019 00:00
Search period end: 29 August 2019 00:00
Orbit: 1900 x 2145 km, 64.8° (Epoch: 18 August)

Date Brightness Start Highest point End Pass type
(mag) Time Alt. Az. Time Alt. Az. Time Alt. Az.
19 Aug 9.6 01:36:23 19° E 01:36:23 19° E 01:41:13 10° ENE visible
19 Aug 7.9 03:44:13 63° W 03:45:25 65° WNW 03:56:39 10° N visible
20 Aug 7.9 03:10:23 80° NNE 03:10:23 80° NNE 03:20:54 10° NNE visible
20 Aug 9.3 05:18:13 10° W 05:21:34 12° WNW 05:25:04 10° NW visible
21 Aug 8.4 02:36:29 53° NE 02:36:29 53° NE 02:44:48 10° NNE visible
21 Aug 9.0 04:44:18 20° WNW 04:45:27 20° WNW 04:53:00 10° NNW visible
22 Aug 9.1 02:02:30 33° ENE 02:02:30 33° ENE 02:08:19 10° NE visible
22 Aug 8.7 04:10:19 30° WNW 04:10:19 30° WNW 04:18:53 10° NNW visible
23 Aug 9.7 01:28:28 19° ENE 01:28:28 19° ENE 01:31:21 10° NE visible
23 Aug 8.5 03:36:16 39° NW 03:36:16 39° NW 03:44:01 10° N visible
24 Aug 8.6 03:02:10 40° N 03:02:10 40° N 03:08:41 10° N visible
25 Aug 9.0 02:28:00 33° NNE 02:28:00 33° NNE 02:33:00 10° NNE visible
26 Aug 9.4 01:53:46 23° NNE 01:53:46 23° NNE 01:56:57 10° NNE visible
26 Aug 9.3 04:01:34 16° NW 04:01:34 16° NW 04:04:44 10° NNW visible
27 Aug 9.9 01:19:30 14° NE 01:19:30 14° NE 01:20:32 10° NE visible
27 Aug 9.3 03:27:17 19° NNW 03:27:17 19° NNW 03:30:47 10° NNW visible
28 Aug 9.4 02:52:58 20° NNW 02:52:58 20° NNW 02:56:00 10° N visible
